Location: Dana
(41.8364°N, 106.7042°W)
Time: 14:32:21
(UTC+00:00)

SR - Pass Details

Date: 19 May 2026
Orbit: 567 x 853 km, 66.7° (Epoch: 7 June)

Event Time Altitude Azimuth Distance (km) Brightness Sun altitude
Rises 12:33:59 0° 191° (SSW) 2,944 ? 7.9°
Reaches altitude 10° 12:36:14 10° 185° (S) 2,081 ? 8.3°
Maximum altitude 12:40:45 46° 113° (ESE) 950 ? 9.1°
Drops below altitude 10° 12:45:41 10° 41° (NE) 2,278 ? 9.9°
Sets 12:48:15 0° 36° (NE) 3,254 ? 10.4°
